Weather History for KAXN - March, 2013

Change the Weather History Date:

Sunday, March 10, 2013

  Actual Average Record
Temperature  
Mean Temperature 20 °F -  
Max Temperature 26 °F 34 °F 53 °F (2015)
Min Temperature 15 °F 14 °F -13 °F (2003)
Degree Days  
Heating Degree Days 44    
Moisture  
Dew Point 18 °F    
Average Humidity 81    
Maximum Humidity 88    
Minimum Humidity 74    
Precipitation  
Precipitation 0.00 in - - ()
Sea Level Pressure  
Sea Level Pressure 30.03 in    
Wind  
Wind Speed 14 mph (North)    
Max Wind Speed 18 mph    
Max Gust Speed 28 mph    
Visibility 9 miles    
Events      
Averages and records for this station are not official NWS values.
T = Trace of Precipitation, MM = Missing Value Source: NWS Daily Summary

Daily Weather History Graph

Daily Weather History Graph

Search for Another Location

Airport or City:

Trip Planner

Search our weather history database for the weather conditions in past years. The results will help you decide how hot, cold, wet, or windy it might be!

Date:

Astronomy

Mar. 10, 2013 Rise Set
Actual Time 7:43 AM CDT 7:21 PM CDT
Civil Twilight 7:13 AM CDT 7:50 PM CDT
Nautical Twilight 6:38 AM CDT 8:25 PM CDT
Astronomical Twilight 6:04 AM CDT 9:00 PM CDT
Moon 6:45 AM CDT (3/10) 6:29 PM CDT (3/10)
Length of Visible Light 12h 37m
Length of Day
11h 37m
Waning Crescent, 2% of the Moon is Illuminated
Mar 10
Waning Crescent
Mar 11
New
Mar 19
First Quarter
Mar 27
Full
Apr 2
Last Quarter

Hourly Weather History & Observations

Time (CDT) Temp. Windchill Dew Point Humidity Pressure Visibility Wind Dir Wind Speed Gust Speed Precip Events Conditions
12:29 AM 26.6 °F 14.3 °F 21.2 °F 80% 29.86 in 7.0 mi NNW 16.1 mph 24.2 mph N/A   Overcast
12:53 AM 26.1 °F 15.0 °F 21.9 °F 84% 29.92 in 7.0 mi NNW 12.7 mph 21.9 mph N/A   Overcast
1:03 AM 26.6 °F 15.2 °F 21.2 °F 80% 29.87 in 7.0 mi North 13.8 mph 20.7 mph N/A   Overcast
1:15 AM 24.8 °F 13.4 °F 21.2 °F 86% 29.88 in 7.0 mi NNW 12.7 mph - N/A   Overcast
1:53 AM 25.0 °F 11.7 °F 21.0 °F 85% 29.96 in 8.0 mi NNW 17.3 mph - N/A   Overcast
3:53 AM 24.1 °F 12.5 °F 21.0 °F 88% 29.96 in 6.0 mi North 12.7 mph - N/A   Overcast
4:53 AM 23.0 °F 11.1 °F 19.0 °F 85% 29.97 in 8.0 mi North 12.7 mph - N/A   Overcast
5:53 AM 23.0 °F 10.6 °F 19.9 °F 88% 30.00 in 6.0 mi NNW 13.8 mph 21.9 mph N/A   Overcast
7:53 AM 23.0 °F 10.6 °F 19.0 °F 85% 30.04 in 7.0 mi North 13.8 mph - N/A   Overcast
8:53 AM 21.9 °F 7.8 °F 18.0 °F 85% 30.09 in 8.0 mi North 17.3 mph 23.0 mph N/A   Overcast
9:53 AM 23.0 °F 10.1 °F 18.0 °F 81% 30.10 in 9.0 mi North 15.0 mph 19.6 mph N/A   Overcast
10:53 AM 21.9 °F 8.7 °F 18.0 °F 85% 30.12 in 9.0 mi North 15.0 mph 23.0 mph N/A   Overcast
11:53 AM 24.1 °F 10.1 °F 19.0 °F 81% 30.09 in 10.0 mi North 18.4 mph 24.2 mph N/A   Overcast
12:53 PM 25.0 °F 13.6 °F 19.0 °F 78% 30.13 in 10.0 mi North 12.7 mph - N/A   Overcast
1:53 PM 24.1 °F 11.5 °F 19.0 °F 81% 30.09 in 10.0 mi NNE 15.0 mph 27.6 mph N/A   Overcast
2:53 PM 25.0 °F 12.6 °F 19.0 °F 78% 30.09 in 10.0 mi North 15.0 mph - N/A   Overcast
3:53 PM 25.0 °F 13.1 °F 18.0 °F 75% 30.10 in 10.0 mi North 13.8 mph - N/A   Overcast
4:53 PM 25.0 °F 12.2 °F 18.0 °F 75% 30.07 in 10.0 mi NNE 16.1 mph 23.0 mph N/A   Overcast
5:53 PM 25.0 °F 12.2 °F 18.0 °F 75% 30.07 in 10.0 mi North 16.1 mph - N/A   Mostly Cloudy
6:17 PM 24.8 °F 12.4 °F 17.6 °F 74% 29.99 in 10.0 mi North 15.0 mph 21.9 mph N/A   Scattered Clouds
6:53 PM 24.1 °F 13.7 °F 18.0 °F 77% 30.07 in 10.0 mi North 10.4 mph - N/A   Mostly Cloudy
7:37 PM 21.2 °F 10.1 °F 17.6 °F 86% 30.00 in 10.0 mi North 10.4 mph - N/A   Scattered Clouds
7:53 PM 21.9 °F 11.0 °F 16.0 °F 78% 30.08 in 10.0 mi North 10.4 mph - N/A   Clear
9:53 PM 18.0 °F 6.9 °F 14.0 °F 84% 30.09 in 10.0 mi North 9.2 mph - N/A   Overcast
10:53 PM 16.0 °F 5.3 °F 12.0 °F 84% 30.08 in 10.0 mi North 8.1 mph - N/A   Scattered Clouds
11:51 PM 15.8 °F 4.2 °F 10.4 °F 79% 29.98 in 10.0 mi North 9.2 mph - N/A   Mostly Cloudy
11:53 PM 16.0 °F 5.3 °F 10.9 °F 81% 30.06 in 10.0 mi North 8.1 mph - N/A   Mostly Cloudy
12:53 AM 16.0 °F 2.9 °F 10.9 °F 81% 30.04 in 10.0 mi North 11.5 mph - N/A   Overcast